Location: ???????
(54.6339°N, 39.4245°E)
Time: 02:42:43
(UTC+00:00)

Cosmos 1833 Rocket - Pass Details

Date: 19 May 2025
Orbit: 831 x 839 km, 71.0° (Epoch: 13 June)

Event Time Altitude Azimuth Distance (km) Brightness Sun altitude
Rises 18:41:55 0° 202° (SSW) 3,381 5.5 -8.2°
Reaches altitude 10° 18:44:22 10° 200° (SSW) 2,451 4.8 -8.4°
Maximum altitude 18:49:57 70° 118° (ESE) 896 2.7 -8.9°
Drops below altitude 10° 18:55:34 10° 36° (NE) 2,466 5.4 -9.4°
Sets 18:58:02 0° 34° (NE) 3,404 6.2 -9.6°
